Location: Hiram
(41.3130°N, 81.1440°W)
Time: 17:25:44
(UTC-04:00)

Iridium 62 - Visible Passes

Search period start: 21 August 2017 00:00
Search period end: 31 August 2017 00:00
Orbit: 776 x 779 km, 86.4° (Epoch: 21 August)

Date Brightness Start Highest point End Pass type
(mag) Time Alt. Az. Time Alt. Az. Time Alt. Az.
21 Aug 6.2 03:56:30 10° N 04:01:42 62° E 04:03:11 43° SE visible
21 Aug 7.5 05:38:55 10° NW 05:41:49 15° WNW 05:43:37 13° W visible
22 Aug 7.2 03:23:19 10° NNE 03:28:03 34° E 03:29:15 30° ESE visible
22 Aug 6.8 05:04:15 10° NNW 05:08:36 27° W 05:09:41 25° WSW visible
23 Aug 7.9 02:50:36 10° NNE 02:54:16 19° ENE 02:55:20 18° E visible
23 Aug 6.0 04:30:15 10° NNW 04:35:17 50° W 04:35:46 48° WSW visible
24 Aug 8.5 02:20:04 10° ENE 02:20:20 10° ENE 02:20:36 10° ENE visible
24 Aug 5.7 03:56:34 10° N 04:01:49 89° E 04:01:53 88° SSE visible
24 Aug 7.8 05:41:16 10° WNW 05:41:40 10° WNW 05:42:05 10° W visible
25 Aug 6.6 03:23:11 10° N 03:28:02 48° ENE 03:28:02 48° ENE visible
25 Aug 7.3 05:04:55 10° NW 05:08:28 19° WNW 05:08:28 19° WNW visible
26 Aug 7.6 02:50:08 10° NNE 02:54:12 27° ENE 02:54:12 27° ENE visible
26 Aug 6.7 04:30:36 10° NNW 04:34:38 33° WNW 04:34:38 33° WNW visible
27 Aug 8.3 02:17:45 10° NE 02:20:23 15° ENE 02:20:23 15° ENE visible
27 Aug 6.3 03:56:44 10° N 04:00:49 51° NW 04:00:49 51° NW visible
28 Aug 6.6 03:23:10 10° N 03:27:02 48° NNE 03:27:02 48° NNE visible
28 Aug 7.8 05:06:02 10° NW 05:07:28 13° WNW 05:07:28 13° WNW visible
29 Aug 7.4 02:49:55 10° NNE 02:53:15 31° NE 02:53:15 31° NE visible
29 Aug 7.4 04:31:07 10° NNW 04:33:42 21° NW 04:33:42 21° NW visible
30 Aug 8.1 02:17:04 10° NNE 02:19:29 19° NE 02:19:29 19° NE visible
30 Aug 7.1 03:57:01 10° NNW 03:59:56 30° NW 03:59:56 30° NW visible
